Hourly Data Report for May 26, 2003

SHERBROOKE A
QUEBEC

45°26'00.000" N
71°41'00.000" W
241.40 m
7028124
71610
YSC

Download Data

Hourly Data (May 2003)
Hourly Data Report for May 26, 2003
TIME
LST
Temp Definition
°C
Dew Point Definition
°C
Rel Hum Definition
%
Precip. Amount Definition
mm

Wind Dir Definition
10's deg

Wind Spd Definition
km/h
Visibility Definition
km
Stn Press Definition
kPa
Hmdx Definition


Wind Chill Definition


Weather Definition


00:00 9.9 9.0 94   7 6 15.0 98.90      
01:00 11.3 10.1 92   5 6 15.0 98.92      
02:00 11.2 9.9 92   9 7 15.0 98.91      
03:00 10.7 9.2 90   8 9 15.0 98.92      
04:00 9.4 8.7 95   7 7 15.0 98.90      
05:00 10.0 9.0 93   8 9 15.0 98.94      
06:00 11.1 9.6 90   8 9 15.0 98.99      
07:00 12.2 10.3 88   6 7 24.1 98.99     Mostly Cloudy
08:00 13.5 11.3 87   5 6 24.1 98.97     Mostly Cloudy
09:00 14.0 11.2 83   5 7 24.1 98.97     Mostly Cloudy
10:00 15.1 11.7 80   3 6 24.1 98.93     Cloudy
11:00 15.3 11.2 77     0 24.1 98.94     Rain Showers
12:00 15.9 11.3 74   3 9 19.3 98.91     Rain Showers
13:00 15.2 11.4 78   8 11 19.3 98.89     Rain Showers
14:00 14.6 12.6 88   13 11 24.1 98.89     Rain Showers
15:00 13.5 12.4 93   10 7 16.1 98.89     Rain Showers
16:00 13.6 12.8 95   7 6 19.3 98.84     Rain Showers
17:00 13.4 12.6 95   8 6 15.0 98.81     Rain
18:00 12.4 11.3 93   8 9 15.0 98.82     Rain
19:00 11.6 10.6 94   6 7 15.0 98.80      
20:00 11.4 10.8 96   4 6 15.0 98.82     Rain
21:00 10.9 10.4 97   4 7 15.0 98.85      
22:00 10.7 10.2 97   5 6 15.0 98.82     Rain
23:00 10.7 10.2 97   5 7 15.0 98.81      

Notes on Data Quality.

Legend

  • E = Estimated
  • M = Missing
  • NA = Not Available*
  • [empty] = Indicates an unobserved value
Date modified: